[[{"header":{"parameterUnit":"m.s-1","parameterCategory":1,"la1":30.2991,"la2":30.254,"lo1":-89.0895,"lo2":-89.0444,"dy":0.0017,"dx":0.0017,"nx":28,"ny":28,"refTime":"2025-07-19T21:00:00:Z","depth":0,"parameterNumber":2,"parameterNumberName":"U-component_of_WINDS"},"data":[0,0,0,0,0,0,0,0,0,0,0,0,0,0,0,0,0,0,0,0,0,0,0,0,0,0,0,0,0,0,0,0,0,0,0,0,0,0,0,0,0,0,0,0,0,0,0,0,0,0,0,0,0,0,0,0,0,0,2.9547,2.9548,0,2.9643,2.9644,2.9645,2.9666,2.9665,2.9665,2.9664,2.9763,2.9766,2.977,0,0,0,0,0,0,0,0,0,0,0,0,0,2.9386,2.9388,2.9547,2.9548,2.955,2.9643,2.9644,2.9645,2.9666,2.9665,2.9664,2.9664,2.9762,2.9766,2.977,0,0,0,0,0,0,0,0,0,0,0,0,0,2.9466,2.9389,2.9547,2.9571,2.9574,2.9642,2.9644,2.9646,2.9666,2.9665,2.9664,2.9663,2.9761,2.9766,2.977,2.9822,0,0,2.9785,2.9788,0,0,0,0,0,0,0,0,2.9461,2.9472,2.9566,2.957,2.9573,2.9641,2.9623,2.9705,2.9667,2.9631,2.9664,2.9663,2.9724,2.9731,2.9752,2.9826,2.9831,2.9786,2.9789,2.9791,2.9792,0,0,0,0,0,0,0,2.9456,2.9468,2.9585,2.9568,2.9572,2.9578,2.9589,2.9639,2.9682,2.9634,2.9636,2.9647,2.9725,2.9747,2.9754,2.9832,2.9786,2.979,2.9793,2.9795,2.9956,2.9958,0,0,0,0,0,0,2.9446,2.9463,2.9582,2.9588,2.9514,2.9582,2.9593,2.9621,2.9682,2.969,2.9648,2.9648,2.9739,2.9748,2.9758,2.9824,2.9791,2.9796,2.9798,2.9955,2.9957,2.9958,0,0,0,0,0,0,2.9442,2.9456,2.9578,2.9526,2.9542,2.9586,2.9616,2.9623,2.9645,2.9692,2.97,2.9662,2.9739,2.9751,2.9806,2.9827,2.9798,2.9802,2.9954,2.9956,2.9957,2.9954,0,0,0,0,0,0,2.9437,2.9455,2.9474,2.9526,2.9545,2.9624,2.9617,2.9626,2.9653,2.9654,2.9707,2.9715,2.9739,2.9799,2.9811,2.9833,2.9806,2.9952,2.9954,2.9957,2.9953,2.9956,2.9958,0,0,0,0,0,2.9432,2.9469,2.9475,2.9489,2.9569,2.9625,2.9636,2.9662,2.9655,2.9675,2.9706,2.9713,2.9823,2.9804,2.9818,2.9842,2.9951,2.9954,2.9957,2.9951,2.9955,2.9958,0,0,0,0,0,0,2.9417,2.9476,2.9483,2.9538,2.9577,2.9628,2.9654,2.9665,2.9706,2.9705,2.9736,2.9748,2.9802,2.9828,2.9806,2.9897,2.9887,2.9893,2.9878,2.9882,2.9885,2.9877,2.981,0,0,0,0,0,2.942,2.946,2.9509,2.9553,2.9572,2.961,2.9635,2.9652,2.9694,2.971,2.9745,2.9785,2.9829,2.9857,2.9899,2.9957,2.997,2.998,2.9983,2.9986,2.999,3.0025,3.0031,2.9968,2.9968,2.9968,0,0,2.9427,2.9464,2.9487,2.9552,2.9583,2.9625,2.9624,2.9667,2.9699,2.9717,2.9771,2.9798,2.9846,2.9903,2.9929,2.9926,3.0011,2.9989,2.9991,2.9995,3.0029,3.0035,3.004,2.997,2.997,2.9969,0,0,2.9461,2.9493,2.9534,2.9566,2.9614,2.964,2.965,2.9701,2.972,2.9775,2.979,2.9829,2.9903,2.9936,2.9963,3.0013,3.0022,3.0026,3.0041,3.0075,3.008,3.0084,3.0103,3.011,3.0031,3.0031,3.0031,0,2.9464,2.9526,2.9554,2.9597,2.9626,2.9644,2.9687,2.9717,2.9777,2.9797,2.9792,2.9887,2.992,2.9986,2.9999,3.0019,3.0033,3.002,3.0077,3.0082,3.0086,3.0105,3.0112,3.0031,3.0031,3.0031,3.0031,0,2.9528,2.9571,2.9599,2.9657,2.9688,2.9731,2.9766,2.9795,2.981,2.9837,2.9894,2.9935,2.9987,3.0004,3.0018,3.0073,3.007,3.007,3.0061,3.0092,3.011,3.0117,3.0031,3.0031,3.0031,3.0031,0,0,2.9554,2.9628,2.9638,2.9665,2.9721,2.9756,2.98,2.9851,2.9877,2.9918,2.9957,3.0021,3.0022,3.0053,3.0072,3.0101,3.014,3.0099,3.01,3.0106,3.0205,3.0204,3.0212,3.0147,3.0148,3.0149,3.0201,0,2.9596,2.9676,2.9703,2.9769,2.9811,2.983,2.987,2.9909,2.9935,2.9975,3.0005,3.005,3.0048,3.0067,3.0096,3.0129,3.016,3.0125,3.0185,3.0187,3.0173,3.0221,3.022,3.0267,3.0208,3.021,3.021,0,2.9655,2.9698,2.9768,2.9821,2.9839,2.9874,2.9924,2.9962,3.0008,3.0025,3.006,3.0078,3.0127,3.0115,3.0184,3.016,3.0186,3.0206,3.0208,3.0215,3.02,3.023,3.0283,3.029,3.0222,3.0221,3.022,0,2.9669,2.9744,2.9796,2.9819,2.9881,2.9906,2.9933,2.9978,3.0007,3.0052,3.0072,3.0121,3.0149,3.0187,3.0218,3.0206,3.0286,3.0276,3.0303,3.0302,3.0318,3.0317,3.0376,3.0334,3.0334,3.0334,3.0334,0,2.9713,2.9755,2.9804,2.9836,2.9885,2.9917,2.9965,2.9993,3.0034,3.0073,3.0093,3.013,3.0168,3.0211,3.0235,3.029,3.0302,3.0318,3.0325,3.0317,3.0315,3.0335,3.0332,3.0336,3.0335,3.0335,3.0335,0,2.9736,2.977,2.9829,2.9883,2.9898,2.9932,2.998,3.0013,3.0041,3.0091,3.0104,3.0148,3.0199,3.0234,3.03,3.0316,3.0376,3.0381,3.036,3.0363,3.0389,3.0386,3.0464,3.0476,3.0424,3.0425,3.0425,0,2.9762,2.9795,2.9854,2.9882,2.9909,2.9954,2.9985,3.0018,3.0049,3.0105,3.0132,3.0184,3.0228,3.0309,3.0348,3.0398,3.0406,3.0429,3.0413,3.0405,3.0407,3.0405,3.041,3.0432,3.0432,3.0432,3.0433,0,2.9805,2.9821,2.9864,2.9914,2.995,2.9991,3.0032,3.0054,3.0095,3.013,3.0182,3.0216,3.0284,3.0336,3.0391,3.042,3.0434,3.0437,3.0447,3.0439,3.0426,3.0435,3.0368,3.0435,3.0435,3.0435,3.0435,3.0435,2.9832,2.9863,2.991,2.9958,2.9993,3.0031,3.0066,3.0098,3.0142,3.02,3.0217,3.0272,3.032,3.0395,3.0425,3.047,3.0468,3.0481,3.0484,3.0487,3.0488,3.0419,3.048,3.048,3.048,3.048,3.048,0,2.9877,2.9908,2.9952,3.001,3.0048,3.0058,3.0104,3.0136,3.0184,3.0227,3.027,3.0332,3.0383,3.0427,3.048,3.0508,3.0516,3.0521,3.0519,3.0527,3.0485,3.0473,3.0514,3.0514,3.0514,3.0514,3.0514,3.0514,2.9905,2.9959,2.9981,3.0053,3.0085,3.0139,3.0165,3.0201,3.0236,3.0303,3.0346,3.0374,3.0418,3.0475,3.0524,3.0536,3.0555,3.0559,3.0572,3.0533,3.0529,3.0525,3.0514,3.0563,3.0563,3.061,3.061,3.061]},{"header":{"parameterUnit":"m.s-1","parameterCategory":1,"la1":30.2991,"la2":30.254,"lo1":-89.0895,"lo2":-89.0444,"dy":0.0017,"dx":0.0017,"nx":28,"ny":28,"refTime":"2025-07-19T21:00:00:Z","depth":0,"parameterNumber":3,"parameterNumberName":"V-component_of_WINDS"},"data":[0,0,0,0,0,0,0,0,0,0,0,0,0,0,0,0,0,0,0,0,0,0,0,0,0,0,0,0,0,0,0,0,0,0,0,0,0,0,0,0,0,0,0,0,0,0,0,0,0,0,0,0,0,0,0,0,0,0,-0.9601,-0.9602,0,-0.9638,-0.9638,-0.9639,-0.9647,-0.9647,-0.9647,-0.9647,-0.9685,-0.9686,-0.9687,0,0,0,0,0,0,0,0,0,0,0,0,0,-0.9539,-0.954,-0.9601,-0.9602,-0.9602,-0.9638,-0.9639,-0.9639,-0.9647,-0.9647,-0.9647,-0.9647,-0.9684,-0.9686,-0.9687,0,0,0,0,0,0,0,0,0,0,0,0,0,-0.957,-0.9541,-0.9601,-0.9611,-0.9612,-0.9638,-0.9639,-0.9639,-0.9648,-0.9647,-0.9647,-0.9646,-0.9684,-0.9685,-0.9687,-0.9707,0,0,-0.9693,-0.9694,0,0,0,0,0,0,0,0,-0.9568,-0.9572,-0.9609,-0.961,-0.9611,-0.9638,-0.9631,-0.9662,-0.9648,-0.9634,-0.9647,-0.9646,-0.9669,-0.9672,-0.968,-0.9708,-0.971,-0.9693,-0.9694,-0.9695,-0.9696,0,0,0,0,0,0,0,-0.9566,-0.9571,-0.9616,-0.9609,-0.9611,-0.9614,-0.9617,-0.9637,-0.9653,-0.9635,-0.9636,-0.964,-0.967,-0.9678,-0.9681,-0.971,-0.9693,-0.9695,-0.9696,-0.9697,-0.9758,-0.9759,0,0,0,0,0,0,-0.9562,-0.9569,-0.9615,-0.9617,-0.9589,-0.9615,-0.9619,-0.963,-0.9653,-0.9656,-0.964,-0.964,-0.9675,-0.9679,-0.9682,-0.9708,-0.9695,-0.9697,-0.9698,-0.9758,-0.9758,-0.9759,0,0,0,0,0,0,-0.9561,-0.9566,-0.9613,-0.9593,-0.9599,-0.9616,-0.9628,-0.9631,-0.9639,-0.9657,-0.966,-0.9646,-0.9675,-0.968,-0.9701,-0.9709,-0.9698,-0.9699,-0.9757,-0.9758,-0.9759,-0.9758,0,0,0,0,0,0,-0.9559,-0.9566,-0.9573,-0.9593,-0.96,-0.9631,-0.9628,-0.9632,-0.9642,-0.9642,-0.9663,-0.9666,-0.9675,-0.9698,-0.9703,-0.9711,-0.9701,-0.9757,-0.9758,-0.9758,-0.9757,-0.9758,-0.9759,0,0,0,0,0,-0.9557,-0.9571,-0.9573,-0.9579,-0.961,-0.9631,-0.9635,-0.9645,-0.9643,-0.965,-0.9662,-0.9665,-0.9707,-0.97,-0.9705,-0.9715,-0.9756,-0.9757,-0.9758,-0.9756,-0.9758,-0.9759,0,0,0,0,0,0,-0.955,-0.9573,-0.9576,-0.9597,-0.9612,-0.9632,-0.9642,-0.9646,-0.9662,-0.9662,-0.9674,-0.9679,-0.9699,-0.9709,-0.9701,-0.9736,-0.9732,-0.9734,-0.9728,-0.973,-0.9731,-0.9729,-0.9702,0,0,0,0,0,-0.9551,-0.9567,-0.9586,-0.9602,-0.961,-0.9625,-0.9634,-0.9641,-0.9657,-0.9663,-0.9677,-0.9692,-0.9709,-0.972,-0.9737,-0.9758,-0.9764,-0.9768,-0.9769,-0.977,-0.9772,-0.9786,-0.9788,-0.9763,-0.9763,-0.9763,0,0,-0.9553,-0.9568,-0.9577,-0.9602,-0.9614,-0.963,-0.963,-0.9647,-0.9659,-0.9666,-0.9687,-0.9698,-0.9716,-0.9738,-0.9748,-0.9747,-0.978,-0.9771,-0.9772,-0.9773,-0.9787,-0.9789,-0.9791,-0.9764,-0.9763,-0.9763,0,0,-0.9566,-0.9578,-0.9594,-0.9606,-0.9625,-0.9635,-0.9639,-0.9659,-0.9667,-0.9688,-0.9694,-0.9709,-0.9737,-0.9751,-0.9761,-0.978,-0.9784,-0.9785,-0.9792,-0.9805,-0.9807,-0.9809,-0.9817,-0.9819,-0.9787,-0.9787,-0.9787,0,-0.9566,-0.959,-0.9601,-0.9618,-0.9629,-0.9637,-0.9654,-0.9665,-0.9689,-0.9697,-0.9695,-0.9732,-0.9744,-0.977,-0.9775,-0.9783,-0.9789,-0.9783,-0.9806,-0.9808,-0.981,-0.9817,-0.982,-0.9787,-0.9787,-0.9787,-0.9787,0,-0.959,-0.9607,-0.9618,-0.964,-0.9653,-0.9669,-0.9684,-0.9695,-0.9701,-0.9712,-0.9734,-0.975,-0.977,-0.9777,-0.9783,-0.9804,-0.9803,-0.9803,-0.98,-0.9812,-0.9819,-0.9822,-0.9787,-0.9787,-0.9787,-0.9787,0,0,-0.9599,-0.9628,-0.9632,-0.9643,-0.9665,-0.9679,-0.9696,-0.9717,-0.9727,-0.9743,-0.9759,-0.9784,-0.9784,-0.9796,-0.9804,-0.9816,-0.9831,-0.9815,-0.9815,-0.9818,-0.9858,-0.9858,-0.9861,-0.9834,-0.9835,-0.9835,-0.9857,0,-0.9614,-0.9646,-0.9657,-0.9683,-0.9699,-0.9708,-0.9723,-0.9739,-0.975,-0.9766,-0.9777,-0.9795,-0.9794,-0.9802,-0.9814,-0.9827,-0.984,-0.9825,-0.985,-0.985,-0.9845,-0.9865,-0.9865,-0.9884,-0.9859,-0.986,-0.986,0,-0.9636,-0.9654,-0.9681,-0.9703,-0.9711,-0.9724,-0.9745,-0.9759,-0.9778,-0.9785,-0.9799,-0.9806,-0.9826,-0.9821,-0.9849,-0.9839,-0.985,-0.9858,-0.9859,-0.9862,-0.9856,-0.9869,-0.989,-0.9894,-0.9865,-0.9864,-0.9864,0,-0.9641,-0.9671,-0.9692,-0.9701,-0.9727,-0.9736,-0.9748,-0.9766,-0.9778,-0.9796,-0.9804,-0.9824,-0.9835,-0.9851,-0.9863,-0.9858,-0.9891,-0.9886,-0.9898,-0.9898,-0.9904,-0.9904,-0.9928,-0.991,-0.991,-0.991,-0.991,0,-0.9657,-0.9675,-0.9695,-0.9708,-0.9727,-0.974,-0.976,-0.9772,-0.9788,-0.9804,-0.9812,-0.9827,-0.9843,-0.986,-0.987,-0.9893,-0.9897,-0.9904,-0.9907,-0.9904,-0.9903,-0.9911,-0.991,-0.9911,-0.991,-0.991,-0.991,0,-0.9666,-0.968,-0.9704,-0.9726,-0.9732,-0.9746,-0.9766,-0.9779,-0.9791,-0.9811,-0.9817,-0.9835,-0.9856,-0.987,-0.9897,-0.9904,-0.9928,-0.993,-0.9922,-0.9923,-0.9934,-0.9933,-0.9965,-0.9971,-0.9948,-0.9948,-0.9948,0,-0.9676,-0.9689,-0.9714,-0.9725,-0.9736,-0.9754,-0.9767,-0.9781,-0.9794,-0.9817,-0.9828,-0.985,-0.9868,-0.9901,-0.9917,-0.9938,-0.9941,-0.9951,-0.9944,-0.9941,-0.9942,-0.9941,-0.9944,-0.9952,-0.9952,-0.9952,-0.9952,0,-0.9692,-0.9699,-0.9717,-0.9738,-0.9753,-0.977,-0.9787,-0.9796,-0.9813,-0.9827,-0.9849,-0.9863,-0.9891,-0.9912,-0.9935,-0.9947,-0.9953,-0.9954,-0.9958,-0.9955,-0.9951,-0.9955,-0.9926,-0.9953,-0.9953,-0.9953,-0.9953,-0.9953,-0.9702,-0.9715,-0.9735,-0.9755,-0.9769,-0.9786,-0.98,-0.9814,-0.9832,-0.9856,-0.9863,-0.9886,-0.9906,-0.9937,-0.995,-0.9968,-0.9968,-0.9973,-0.9974,-0.9976,-0.9976,-0.9947,-0.9972,-0.9972,-0.9972,-0.9972,-0.9972,0,-0.972,-0.9733,-0.9752,-0.9776,-0.9792,-0.9796,-0.9816,-0.9829,-0.9849,-0.9867,-0.9885,-0.9911,-0.9933,-0.9951,-0.9973,-0.9985,-0.9988,-0.9991,-0.999,-0.9993,-0.9975,-0.997,-0.9988,-0.9988,-0.9988,-0.9988,-0.9988,-0.9988,-0.9731,-0.9754,-0.9763,-0.9793,-0.9807,-0.9829,-0.9841,-0.9856,-0.9871,-0.9899,-0.9917,-0.9929,-0.9948,-0.9972,-0.9992,-0.9997,-1.0006,-1.0007,-1.0013,-0.9996,-0.9994,-0.9993,-0.9988,-1.0009,-1.0009,-1.003,-1.003,-1.003]}]]